| time (UTC) | temp C | wind direction | speed KPH | gust KPH | rain 1hr cm | rain 24hr cm | rain mn cm | humidity % | barometer mb |
| 20260510083201 | 5 | 242 | 1.6 | 1.6 | 0.00 | 0.00 | 0.00 | 98 | 1015.6 |
| 20260510082656 | 5 | 237 | 0.0 | 1.6 | 0.00 | 0.00 | 0.00 | 98 | 1015.6 |
| 20260510082152 | 5 | 200 | 0.0 | 0.0 | 0.00 | 0.00 | 0.00 | 97 | 1015.6 |
| 20260510081647 | 5 | 187 | 0.0 | 0.0 | 0.00 | 0.00 | 0.00 | 97 | 1015.7 |
| 20260510081143 | 5 | 187 | 0.0 | 0.0 | 0.00 | 0.00 | 0.00 | 97 | 1015.6 |
| 20260510080642 | 5 | 280 | 0.0 | 1.6 | 0.00 | 0.00 | 0.00 | 97 | 1015.5 |
| 20260510080139 | 5 | 280 | 0.0 | 0.0 | 0.00 | 0.00 | 0.00 | 97 | 1015.6 |
| 20260510075636 | 5 | 279 | 1.6 | 1.6 | 0.00 | 0.00 | 0.00 | 97 | 1015.5 |
| 20260510075134 | 5 | 139 | 0.0 | 0.0 | 0.00 | 0.00 | 0.00 | 97 | 1015.5 |
| 20260510074630 | 5 | 226 | 0.0 | 0.0 | 0.00 | 0.00 | 0.00 | 96 | 1015.6 |
| 20260510074126 | 5 | 226 | 0.0 | 0.0 | 0.00 | 0.00 | 0.00 | 96 | 1015.3 |
| 20260510073622 | 5 | 216 | 0.0 | 0.0 | 0.00 | 0.00 | 0.00 | 96 | 1015.4 |
| 20260510073119 | 5 | 216 | 0.0 | 0.0 | 0.00 | 0.00 | 0.00 | 96 | 1015.3 |
| 20260510072616 | 5 | 216 | 0.0 | 0.0 | 0.00 | 0.00 | 0.00 | 95 | 1015.3 |
| 20260510072112 | 5 | 195 | 0.0 | 0.0 | 0.00 | 0.00 | 0.00 | 95 | 1015.3 |
| 20260510071609 | 5 | 231 | 0.0 | 0.0 | 0.00 | 0.00 | 0.00 | 95 | 1015.3 |
| 20260510071107 | 5 | 208 | 0.0 | 0.0 | 0.00 | 0.00 | 0.00 | 95 | 1015.1 |
| 20260510070603 | 5 | 208 | 0.0 | 0.0 | 0.00 | 0.00 | 0.00 | 95 | 1015.0 |
| 20260510070100 | 5 | 208 | 0.0 | 0.0 | 0.00 | 0.00 | 0.00 | 95 | 1015.1 |
| 20260510065556 | 5 | 208 | 0.0 | 0.0 | 0.00 | 0.00 | 0.00 | 94 | 1015.2 |
| 20260510065052 | 5 | 176 | 0.0 | 0.0 | 0.00 | 0.00 | 0.00 | 93 | 1015.2 |
| 20260510064549 | 5 | 290 | 0.0 | 0.0 | 0.00 | 0.00 | 0.00 | 94 | 1015.1 |
| 20260510064045 | 6 | 259 | 0.0 | 0.0 | 0.00 | 0.00 | 0.00 | 94 | 1015.1 |
| 20260510063543 | 6 | 259 | 0.0 | 0.0 | 0.00 | 0.00 | 0.00 | 94 | 1015.2 |
| 20260510063040 | 6 | 238 | 0.0 | 0.0 | 0.00 | 0.00 | 0.00 | 94 | 1014.9 |
| 20260510062535 | 5 | 139 | 0.0 | 0.0 | 0.00 | 0.00 | 0.00 | 94 | 1015.1 |
| 20260510062031 | 5 | 138 | 0.0 | 0.0 | 0.00 | 0.00 | 0.00 | 94 | 1015.0 |
| 20260510061528 | 5 | 138 | 0.0 | 1.6 | 0.00 | 0.00 | 0.00 | 92 | 1015.1 |
| 20260510061024 | 6 | 138 | 0.0 | 0.0 | 0.00 | 0.00 | 0.00 | 93 | 1015.1 |
| 20260510060521 | 6 | 290 | 0.0 | 0.0 | 0.00 | 0.00 | 0.00 | 93 | 1015.0 |
| 20260510060017 | 6 | 290 | 0.0 | 0.0 | 0.00 | 0.00 | 0.00 | 94 | 1014.9 |
| 20260510055513 | 6 | 290 | 1.6 | 1.6 | 0.00 | 0.00 | 0.00 | 94 | 1015.2 |
| 20260510055011 | 6 | 290 | 0.0 | 1.6 | 0.00 | 0.00 | 0.00 | 93 | 1015.1 |
| 20260510054507 | 6 | 291 | 0.0 | 1.6 | 0.00 | 0.00 | 0.00 | 93 | 1014.9 |
| 20260510054002 | 6 | 292 | 0.0 | 0.0 | 0.00 | 0.00 | 0.00 | 93 | 1015.1 |
| 20260510053457 | 6 | 292 | 0.0 | 1.6 | 0.00 | 0.00 | 0.00 | 92 | 1015.2 |
| 20260510052953 | 6 | 292 | 0.0 | 1.6 | 0.00 | 0.00 | 0.00 | 92 | 1015.2 |
| 20260510052450 | 6 | 292 | 0.0 | 1.6 | 0.00 | 0.00 | 0.00 | 93 | 1015.1 |
| 20260510051946 | 6 | 293 | 0.0 | 3.2 | 0.00 | 0.00 | 0.00 | 93 | 1015.1 |
| 20260510051442 | 6 | 278 | 0.0 | 3.2 | 0.00 | 0.00 | 0.00 | 93 | 1015.2 |
| 20260510050938 | 6 | 235 | 0.0 | 0.0 | 0.00 | 0.00 | 0.00 | 93 | 1015.3 |
| 20260510050435 | 6 | 235 | 0.0 | 0.0 | 0.00 | 0.00 | 0.00 | 93 | 1015.4 |
| 20260510045933 | 6 | 235 | 0.0 | 0.0 | 0.00 | 0.00 | 0.00 | 92 | 1015.3 |
| 20260510045430 | 6 | 235 | 0.0 | 0.0 | 0.00 | 0.00 | 0.00 | 92 | 1015.2 |
| 20260510044926 | 6 | 235 | 0.0 | 0.0 | 0.00 | 0.00 | 0.00 | 91 | 1015.5 |
| 20260510044423 | 6 | 235 | 0.0 | 0.0 | 0.00 | 0.00 | 0.00 | 91 | 1015.5 |
| 20260510043920 | 6 | 235 | 0.0 | 0.0 | 0.00 | 0.00 | 0.00 | 90 | 1015.5 |
| 20260510043416 | 6 | 235 | 0.0 | 0.0 | 0.00 | 0.00 | 0.00 | 90 | 1015.4 |
| 20260510042914 | 6 | 235 | 0.0 | 0.0 | 0.00 | 0.00 | 0.00 | 89 | 1015.4 |
| 20260510042410 | 6 | 235 | 0.0 | 0.0 | 0.00 | 0.00 | 0.00 | 89 | 1015.4 |
| 20260510041906 | 6 | 235 | 0.0 | 0.0 | 0.00 | 0.00 | 0.00 | 89 | 1015.3 |
| 20260510041403 | 6 | 235 | 0.0 | 1.6 | 0.00 | 0.00 | 0.00 | 89 | 1015.3 |
| 20260510040901 | 7 | 235 | 0.0 | 0.0 | 0.00 | 0.00 | 0.00 | 89 | 1015.0 |
| 20260510040358 | 7 | 235 | 0.0 | 0.0 | 0.00 | 0.00 | 0.00 | 89 | 1015.3 |
| 20260510035853 | 7 | 235 | 0.0 | 0.0 | 0.00 | 0.00 | 0.00 | 88 | 1015.2 |
| 20260510035349 | 7 | 235 | 0.0 | 0.0 | 0.00 | 0.00 | 0.00 | 87 | 1015.3 |
| 20260510034844 | 7 | 235 | 0.0 | 0.0 | 0.00 | 0.00 | 0.00 | 87 | 1015.3 |
| 20260510034343 | 7 | 235 | 0.0 | 0.0 | 0.00 | 0.00 | 0.00 | 87 | 1015.2 |
| 20260510033839 | 7 | 235 | 0.0 | 0.0 | 0.00 | 0.00 | 0.00 | 86 | 1015.0 |
| 20260510033336 | 7 | 235 | 0.0 | 0.0 | 0.00 | 0.00 | 0.00 | 86 | 1015.0 |
| 20260510032832 | 7 | 235 | 1.6 | 1.6 | 0.00 | 0.00 | 0.00 | 86 | 1015.2 |
| 20260510032329 | 8 | 240 | 0.0 | 0.0 | 0.00 | 0.00 | 0.00 | 85 | 1015.2 |
| 20260510031825 | 8 | 240 | 0.0 | 0.0 | 0.00 | 0.00 | 0.00 | 85 | 1015.1 |
| 20260510031320 | 7 | 240 | 0.0 | 0.0 | 0.00 | 0.00 | 0.00 | 85 | 1015.1 |
| 20260510030815 | 8 | 240 | 0.0 | 0.0 | 0.00 | 0.00 | 0.00 | 84 | 1015.2 |
| 20260510030312 | 8 | 295 | 0.0 | 0.0 | 0.00 | 0.00 | 0.00 | 81 | 1015.1 |
| 20260510025809 | 8 | 295 | 0.0 | 0.0 | 0.00 | 0.00 | 0.00 | 82 | 1015.1 |
| 20260510025306 | 8 | 295 | 0.0 | 1.6 | 0.00 | 0.00 | 0.00 | 82 | 1015.0 |
| 20260510024803 | 8 | 295 | 0.0 | 0.0 | 0.00 | 0.00 | 0.00 | 83 | 1015.0 |
| 20260510024300 | 8 | 295 | 0.0 | 0.0 | 0.00 | 0.00 | 0.00 | 84 | 1015.1 |
| 20260510023755 | 8 | 295 | 0.0 | 0.0 | 0.00 | 0.00 | 0.00 | 83 | 1014.9 |
| 20260510023247 | 8 | 295 | 0.0 | 0.0 | 0.00 | 0.00 | 0.00 | 83 | 1014.9 |
| 20260510022744 | 8 | 295 | 0.0 | 0.0 | 0.00 | 0.00 | 0.00 | 82 | 1014.8 |
| 20260510022243 | 9 | 295 | 0.0 | 0.0 | 0.00 | 0.00 | 0.00 | 80 | 1014.9 |
| 20260510021742 | 9 | 295 | 0.0 | 0.0 | 0.00 | 0.00 | 0.00 | 80 | 1014.6 |
| 20260510021241 | 9 | 295 | 0.0 | 0.0 | 0.00 | 0.00 | 0.00 | 79 | 1014.6 |
| 20260510020737 | 10 | 295 | 0.0 | 0.0 | 0.00 | 0.00 | 0.00 | 79 | 1014.5 |
| 20260510020236 | 10 | 294 | 0.0 | 0.0 | 0.00 | 0.00 | 0.00 | 79 | 1014.6 |
| 20260510015733 | 10 | 295 | 0.0 | 0.0 | 0.00 | 0.00 | 0.00 | 78 | 1014.2 |
| 20260510015229 | 10 | 309 | 0.0 | 0.0 | 0.00 | 0.00 | 0.00 | 77 | 1014.3 |
| 20260510014724 | 10 | 309 | 0.0 | 0.0 | 0.00 | 0.00 | 0.00 | 75 | 1014.0 |
| 20260510014222 | 10 | 309 | 0.0 | 0.0 | 0.00 | 0.00 | 0.00 | 75 | 1013.9 |
| 20260510013717 | 10 | 311 | 0.0 | 0.0 | 0.00 | 0.00 | 0.00 | 75 | 1013.9 |
| 20260510013213 | 11 | 311 | 0.0 | 0.0 | 0.00 | 0.00 | 0.00 | 75 | 1013.8 |
| 20260510012708 | 11 | 311 | 0.0 | 0.0 | 0.00 | 0.00 | 0.00 | 73 | 1013.8 |
| 20260510012203 | 11 | 311 | 0.0 | 0.0 | 0.00 | 0.00 | 0.00 | 73 | 1013.6 |
| 20260510011658 | 11 | 311 | 0.0 | 0.0 | 0.00 | 0.00 | 0.00 | 73 | 1013.6 |
| 20260510011154 | 11 | 311 | 0.0 | 0.0 | 0.00 | 0.00 | 0.00 | 73 | 1013.7 |
| 20260510010651 | 11 | 313 | 0.0 | 0.0 | 0.00 | 0.00 | 0.00 | 72 | 1013.5 |
| 20260510010148 | 11 | 313 | 0.0 | 0.0 | 0.00 | 0.00 | 0.00 | 71 | 1013.3 |
| 20260510005644 | 12 | 313 | 0.0 | 0.0 | 0.00 | 0.00 | 0.00 | 70 | 1013.4 |
| 20260510005141 | 12 | 313 | 0.0 | 0.0 | 0.00 | 0.00 | 0.00 | 69 | 1013.4 |
| 20260510004639 | 12 | 313 | 0.0 | 0.0 | 0.00 | 0.00 | 0.00 | 68 | 1013.2 |
| 20260510004137 | 12 | 313 | 0.0 | 0.0 | 0.00 | 0.00 | 0.00 | 67 | 1013.1 |
| 20260510003634 | 13 | 314 | 0.0 | 0.0 | 0.00 | 0.00 | 0.00 | 65 | 1013.1 |
| 20260510003129 | 13 | 314 | 0.0 | 0.0 | 0.00 | 0.00 | 0.00 | 64 | 1013.0 |
| 20260510002629 | 13 | 301 | 0.0 | 0.0 | 0.00 | 0.00 | 0.00 | 64 | 1012.7 |
| 20260510002127 | 14 | 301 | 0.0 | 0.0 | 0.00 | 0.00 | 0.00 | 63 | 1012.5 |
| 20260510001623 | 15 | 301 | 1.6 | 1.6 | 0.00 | 0.00 | 0.00 | 59 | 1012.6 |
| 20260510001122 | 15 | 312 | 1.6 | 3.2 | 0.00 | 0.00 | 0.00 | 59 | 1012.5 |
| 20260510000622 | 15 | 313 | 1.6 | 3.2 | 0.00 | 0.00 | 0.00 | 57 | 1012.3 |
| 20260510000120 | 15 | 312 | 1.6 | 3.2 | 0.00 | 0.00 | 0.00 | 57 | 1012.2 |
| 20260509235616 | 15 | 310 | 1.6 | 3.2 | 0.00 | 0.00 | 0.00 | 56 | 1012.1 |
| 20260509235113 | 16 | 300 | 1.6 | 3.2 | 0.00 | 0.00 | 0.00 | 55 | 1012.2 |
| 20260509234609 | 16 | 298 | 1.6 | 3.2 | 0.00 | 0.00 | 0.00 | 53 | 1012.1 |
| 20260509234107 | 16 | 298 | 1.6 | 1.6 | 0.00 | 0.00 | 0.00 | 55 | 1012.2 |
| 20260509233604 | 16 | 298 | 1.6 | 1.6 | 0.00 | 0.00 | 0.00 | 54 | 1012.2 |
| 20260509233101 | 17 | 279 | 0.0 | 0.0 | 0.00 | 0.00 | 0.00 | 49 | 1012.3 |
| 20260509232557 | 17 | 279 | 0.0 | 0.0 | 0.00 | 0.00 | 0.00 | 50 | 1012.3 |
| 20260509232055 | 17 | 19 | 6.4 | 9.7 | 0.00 | 0.00 | 0.00 | 48 | 1012.2 |
| 20260509231551 | 17 | 311 | 6.4 | 9.7 | 0.00 | 0.00 | 0.00 | 47 | 1012.4 |
| 20260509231049 | 17 | 313 | 1.6 | 4.8 | 0.00 | 0.00 | 0.00 | 47 | 1012.4 |
| 20260509230545 | 18 | 306 | 3.2 | 3.2 | 0.00 | 0.00 | 0.00 | 47 | 1012.2 |
| 20260509230043 | 18 | 320 | 9.7 | 16.1 | 0.00 | 0.00 | 0.00 | 45 | 1012.1 |
| 20260509225538 | 19 | 301 | 3.2 | 4.8 | 0.00 | 0.00 | 0.00 | 43 | 1012.3 |
| 20260509225033 | 20 | 313 | 4.8 | 6.4 | 0.00 | 0.00 | 0.00 | 43 | 1012.3 |
| 20260509224529 | 19 | 248 | 1.6 | 1.6 | 0.00 | 0.00 | 0.00 | 44 | 1012.3 |
| 20260509224026 | 19 | 326 | 8.0 | 9.7 | 0.00 | 0.00 | 0.00 | 42 | 1012.2 |
| 20260509223523 | 19 | 293 | 0.0 | 1.6 | 0.00 | 0.00 | 0.00 | 43 | 1012.0 |
| 20260509223021 | 19 | 236 | 1.6 | 12.9 | 0.00 | 0.00 | 0.00 | 42 | 1012.1 |
| 20260509222517 | 20 | 312 | 4.8 | 6.4 | 0.00 | 0.00 | 0.00 | 41 | 1012.0 |
| 20260509222012 | 20 | 300 | 3.2 | 4.8 | 0.00 | 0.00 | 0.00 | 39 | 1011.8 |
| 20260509221509 | 21 | 272 | 0.0 | 4.8 | 0.00 | 0.00 | 0.00 | 38 | 1012.1 |
| 20260509221004 | 20 | 285 | 6.4 | 9.7 | 0.00 | 0.00 | 0.00 | 38 | 1012.2 |
| 20260509220501 | 19 | 297 | 3.2 | 6.4 | 0.00 | 0.00 | 0.00 | 38 | 1011.9 |
| 20260509215957 | 20 | 260 | 0.0 | 1.6 | 0.00 | 0.00 | 0.00 | 39 | 1011.9 |
| 20260509215452 | 19 | 256 | 1.6 | 1.6 | 0.00 | 0.00 | 0.00 | 40 | 1011.9 |
| 20260509214950 | 19 | 322 | 4.8 | 6.4 | 0.00 | 0.00 | 0.00 | 38 | 1011.8 |
| 20260509214447 | 19 | 248 | 1.6 | 4.8 | 0.00 | 0.00 | 0.00 | 39 | 1011.7 |
| 20260509213944 | 19 | 307 | 4.8 | 4.8 | 0.00 | 0.00 | 0.00 | 39 | 1011.8 |
| 20260509213440 | 19 | 282 | 1.6 | 4.8 | 0.00 | 0.00 | 0.00 | 40 | 1011.8 |
| 20260509212937 | 19 | 304 | 0.0 | 1.6 | 0.00 | 0.00 | 0.00 | 39 | 1011.7 |
| 20260509212435 | 19 | 314 | 0.0 | 3.2 | 0.00 | 0.00 | 0.00 | 39 | 1011.5 |
| 20260509211930 | 20 | 200 | 1.6 | 3.2 | 0.00 | 0.00 | 0.00 | 39 | 1011.2 |
| 20260509211426 | 20 | 316 | 4.8 | 9.7 | 0.00 | 0.00 | 0.00 | 39 | 1011.2 |
| 20260509210923 | 21 | 135 | 0.0 | 4.8 | 0.00 | 0.00 | 0.00 | 41 | 1011.2 |
| 20260509210420 | 20 | 254 | 0.0 | 3.2 | 0.00 | 0.00 | 0.00 | 38 | 1011.1 |
| 20260509205915 | 20 | 328 | 3.2 | 4.8 | 0.00 | 0.00 | 0.00 | 39 | 1011.1 |
| 20260509205415 | 20 | 335 | 0.0 | 3.2 | 0.00 | 0.00 | 0.00 | 43 | 1011.1 |
| 20260509204912 | 20 | 311 | 3.2 | 6.4 | 0.00 | 0.00 | 0.00 | 40 | 1011.1 |
| 20260509204408 | 22 | 128 | 6.4 | 6.4 | 0.00 | 0.00 | 0.00 | 39 | 1011.2 |
| 20260509203904 | 21 | 316 | 4.8 | 6.4 | 0.00 | 0.00 | 0.00 | 40 | 1011.0 |
| 20260509203401 | 20 | 171 | 6.4 | 9.7 | 0.00 | 0.00 | 0.00 | 40 | 1011.1 |
| 20260509202858 | 20 | 313 | 3.2 | 4.8 | 0.00 | 0.00 | 0.00 | 40 | 1011.1 |
| 20260509202354 | 20 | 295 | 1.6 | 6.4 | 0.00 | 0.00 | 0.00 | 41 | 1011.1 |
| 20260509201849 | 20 | 306 | 3.2 | 4.8 | 0.00 | 0.00 | 0.00 | 41 | 1011.2 |
| 20260509201345 | 19 | 264 | 3.2 | 9.7 | 0.00 | 0.00 | 0.00 | 43 | 1011.3 |
| 20260509200842 | 19 | 321 | 1.6 | 6.4 | 0.00 | 0.00 | 0.00 | 42 | 1011.0 |
| 20260509200336 | 19 | 137 | 3.2 | 6.4 | 0.00 | 0.00 | 0.00 | 43 | 1011.0 |
| 20260509195834 | 19 | 198 | 3.2 | 9.7 | 0.00 | 0.00 | 0.00 | 44 | 1011.1 |
| 20260509195333 | 19 | 151 | 3.2 | 4.8 | 0.00 | 0.00 | 0.00 | 44 | 1010.9 |
| 20260509194833 | 20 | 252 | 3.2 | 9.7 | 0.00 | 0.00 | 0.00 | 43 | 1011.0 |
| 20260509194329 | 20 | 345 | 6.4 | 11.3 | 0.00 | 0.00 | 0.00 | 40 | 1011.1 |
| 20260509193826 | 21 | 317 | 4.8 | 9.7 | 0.00 | 0.00 | 0.00 | 37 | 1011.0 |
| 20260509193321 | 22 | 315 | 6.4 | 12.9 | 0.00 | 0.00 | 0.00 | 36 | 1011.1 |
| 20260509192817 | 22 | 321 | 6.4 | 12.9 | 0.00 | 0.00 | 0.00 | 37 | 1011.2 |
| 20260509192314 | 22 | 187 | 1.6 | 9.7 | 0.00 | 0.00 | 0.00 | 39 | 1011.0 |
| 20260509191809 | 22 | 300 | 3.2 | 16.1 | 0.00 | 0.00 | 0.00 | 39 | 1011.1 |
| 20260509191305 | 22 | 279 | 6.4 | 12.9 | 0.00 | 0.00 | 0.00 | 35 | 1011.2 |
| 20260509190801 | 21 | 278 | 9.7 | 20.9 | 0.00 | 0.00 | 0.00 | 39 | 1011.2 |
| 20260509190258 | 21 | 294 | 11.3 | 16.1 | 0.00 | 0.00 | 0.00 | 39 | 1011.2 |
| 20260509185755 | 21 | 129 | 6.4 | 20.9 | 0.00 | 0.00 | 0.00 | 39 | 1011.3 |
| 20260509185252 | 21 | 135 | 3.2 | 11.3 | 0.00 | 0.00 | 0.00 | 43 | 1011.5 |
| 20260509184749 | 20 | 227 | 1.6 | 9.7 | 0.00 | 0.00 | 0.00 | 44 | 1011.6 |
| 20260509184247 | 20 | 356 | 8.0 | 22.5 | 0.00 | 0.00 | 0.00 | 39 | 1011.6 |
| 20260509183742 | 20 | 306 | 3.2 | 12.9 | 0.00 | 0.00 | 0.00 | 41 | 1011.6 |
| 20260509183238 | 21 | 143 | 8.0 | 11.3 | 0.00 | 0.00 | 0.00 | 44 | 1011.6 |
| 20260509182734 | 21 | 323 | 4.8 | 6.4 | 0.00 | 0.00 | 0.00 | 42 | 1011.7 |
| 20260509182232 | 21 | 162 | 3.2 | 6.4 | 0.00 | 0.00 | 0.00 | 45 | 1011.3 |
| 20260509181728 | 19 | 305 | 3.2 | 4.8 | 0.00 | 0.00 | 0.00 | 46 | 1011.8 |
| 20260509181226 | 20 | 314 | 6.4 | 9.7 | 0.00 | 0.00 | 0.00 | 46 | 1011.7 |
| 20260509180723 | 19 | 154 | 3.2 | 9.7 | 0.00 | 0.00 | 0.00 | 49 | 1011.7 |
| 20260509180219 | 20 | 146 | 3.2 | 6.4 | 0.00 | 0.00 | 0.00 | 47 | 1011.8 |
| 20260509175715 | 19 | 258 | 1.6 | 12.9 | 0.00 | 0.00 | 0.00 | 52 | 1012.1 |
| 20260509175212 | 19 | 199 | 4.8 | 9.7 | 0.00 | 0.00 | 0.00 | 49 | 1012.0 |
| 20260509174707 | 20 | 180 | 3.2 | 9.7 | 0.00 | 0.00 | 0.00 | 51 | 1012.1 |
| 20260509174203 | 18 | 190 | 0.0 | 3.2 | 0.00 | 0.00 | 0.00 | 55 | 1012.1 |
| 20260509173659 | 18 | 146 | 3.2 | 9.7 | 0.00 | 0.00 | 0.00 | 51 | 1012.2 |
| 20260509173155 | 17 | 279 | 1.6 | 6.4 | 0.00 | 0.00 | 0.00 | 53 | 1012.5 |
| 20260509172651 | 17 | 113 | 1.6 | 1.6 | 0.00 | 0.00 | 0.00 | 55 | 1012.3 |
| 20260509172148 | 17 | 311 | 3.2 | 4.8 | 0.00 | 0.00 | 0.00 | 54 | 1012.4 |
| 20260509171643 | 17 | 176 | 3.2 | 4.8 | 0.00 | 0.00 | 0.00 | 54 | 1012.5 |
| 20260509171140 | 17 | 300 | 0.0 | 3.2 | 0.00 | 0.00 | 0.00 | 54 | 1012.7 |
| 20260509170636 | 17 | 325 | 3.2 | 4.8 | 0.00 | 0.00 | 0.00 | 53 | 1012.5 |
| 20260509170132 | 17 | 227 | 6.4 | 9.7 | 0.00 | 0.00 | 0.00 | 53 | 1012.6 |
| 20260509165631 | 17 | 145 | 4.8 | 4.8 | 0.00 | 0.00 | 0.00 | 56 | 1012.3 |
| 20260509165127 | 17 | 279 | 0.0 | 3.2 | 0.00 | 0.00 | 0.00 | 55 | 1012.4 |
| 20260509164623 | 17 | 262 | 1.6 | 4.8 | 0.00 | 0.00 | 0.00 | 54 | 1012.3 |
| 20260509164119 | 16 | 129 | 1.6 | 4.8 | 0.00 | 0.00 | 0.00 | 57 | 1012.2 |
| 20260509163617 | 16 | 123 | 4.8 | 6.4 | 0.00 | 0.00 | 0.00 | 55 | 1012.4 |
| 20260509163112 | 17 | 164 | 8.0 | 9.7 | 0.00 | 0.00 | 0.00 | 53 | 1012.3 |
| 20260509162610 | 16 | 93 | 3.2 | 17.7 | 0.00 | 0.00 | 0.00 | 54 | 1012.4 |
| 20260509162105 | 17 | 334 | 3.2 | 9.7 | 0.00 | 0.00 | 0.00 | 54 | 1012.4 |
| 20260509161602 | 17 | 331 | 3.2 | 6.4 | 0.00 | 0.00 | 0.00 | 51 | 1012.3 |
| 20260509161057 | 17 | 4 | 3.2 | 3.2 | 0.00 | 0.00 | 0.00 | 50 | 1012.2 |
| 20260509160553 | 17 | 150 | 0.0 | 6.4 | 0.00 | 0.00 | 0.00 | 49 | 1012.2 |
| 20260509160048 | 18 | 153 | 3.2 | 11.3 | 0.00 | 0.00 | 0.00 | 50 | 1012.2 |
| 20260509155544 | 18 | 115 | 9.7 | 17.7 | 0.00 | 0.00 | 0.00 | 53 | 1012.2 |
| 20260509155041 | 17 | 142 | 9.7 | 16.1 | 0.00 | 0.00 | 0.00 | 53 | 1012.4 |
| 20260509154537 | 17 | 130 | 8.0 | 17.7 | 0.00 | 0.00 | 0.00 | 56 | 1012.1 |
| 20260509154035 | 17 | 132 | 9.7 | 16.1 | 0.00 | 0.00 | 0.00 | 57 | 1012.3 |
| 20260509153532 | 17 | 158 | 6.4 | 11.3 | 0.00 | 0.00 | 0.00 | 55 | 1012.3 |
| 20260509153029 | 17 | 171 | 4.8 | 9.7 | 0.00 | 0.00 | 0.00 | 55 | 1012.3 |
| 20260509152524 | 17 | 135 | 8.0 | 14.5 | 0.00 | 0.00 | 0.00 | 51 | 1012.3 |
| 20260509152021 | 17 | 319 | 3.2 | 4.8 | 0.00 | 0.00 | 0.00 | 53 | 1012.6 |
| 20260509151517 | 17 | 126 | 3.2 | 4.8 | 0.00 | 0.00 | 0.00 | 58 | 1012.4 |
| 20260509151015 | 17 | 138 | 0.0 | 0.0 | 0.00 | 0.00 | 0.00 | 55 | 1012.4 |
| 20260509150513 | 17 | 332 | 0.0 | 1.6 | 0.00 | 0.00 | 0.00 | 62 | 1012.3 |
| 20260509150012 | 17 | 62 | 0.0 | 0.0 | 0.00 | 0.00 | 0.00 | 61 | 1012.3 |
| 20260509145507 | 16 | 271 | 0.0 | 3.2 | 0.00 | 0.00 | 0.00 | 56 | 1012.4 |
| 20260509145001 | 16 | 140 | 3.2 | 3.2 | 0.00 | 0.00 | 0.00 | 56 | 1012.6 |
| 20260509144459 | 16 | 129 | 1.6 | 1.6 | 0.00 | 0.00 | 0.00 | 61 | 1012.7 |
| 20260509143950 | 15 | 320 | 3.2 | 3.2 | 0.00 | 0.00 | 0.00 | 61 | 1012.7 |
| 20260509143447 | 15 | 135 | 1.6 | 3.2 | 0.00 | 0.00 | 0.00 | 58 | 1012.5 |
| 20260509142944 | 15 | 309 | 1.6 | 3.2 | 0.00 | 0.00 | 0.00 | 58 | 1012.4 |
| 20260509142440 | 15 | 210 | 3.2 | 6.4 | 0.00 | 0.00 | 0.00 | 60 | 1012.7 |
| 20260509141936 | 15 | 146 | 1.6 | 6.4 | 0.00 | 0.00 | 0.00 | 65 | 1012.5 |
| 20260509141433 | 15 | 258 | 3.2 | 6.4 | 0.00 | 0.00 | 0.00 | 64 | 1012.6 |
| 20260509140929 | 14 | 145 | 4.8 | 9.7 | 0.00 | 0.00 | 0.00 | 66 | 1012.6 |
| 20260509140426 | 14 | 235 | 3.2 | 6.4 | 0.00 | 0.00 | 0.00 | 68 | 1013.0 |
| 20260509135925 | 14 | 340 | 4.8 | 9.7 | 0.00 | 0.00 | 0.00 | 66 | 1013.2 |
| 20260509135421 | 14 | 240 | 3.2 | 4.8 | 0.00 | 0.00 | 0.00 | 65 | 1013.2 |
| 20260509134919 | 13 | 201 | 1.6 | 4.8 | 0.00 | 0.00 | 0.00 | 69 | 1013.1 |
| 20260509134416 | 13 | 330 | 4.8 | 9.7 | 0.00 | 0.00 | 0.00 | 67 | 1013.4 |
| 20260509133913 | 12 | 227 | 11.3 | 16.1 | 0.00 | 0.00 | 0.00 | 67 | 1013.5 |
| 20260509133410 | 12 | 267 | 6.4 | 12.9 | 0.00 | 0.00 | 0.00 | 68 | 1013.5 |
| 20260509132908 | 12 | 275 | 6.4 | 11.3 | 0.00 | 0.00 | 0.00 | 69 | 1013.6 |
| 20260509132406 | 12 | 316 | 8.0 | 9.7 | 0.00 | 0.00 | 0.00 | 68 | 1013.7 |
| 20260509131903 | 12 | 229 | 3.2 | 12.9 | 0.00 | 0.00 | 0.00 | 69 | 1013.9 |
| 20260509131400 | 12 | 171 | 6.4 | 12.9 | 0.00 | 0.00 | 0.00 | 69 | 1013.7 |
| 20260509130856 | 12 | 131 | 4.8 | 11.3 | 0.00 | 0.00 | 0.00 | 71 | 1013.7 |
| 20260509130351 | 12 | 130 | 4.8 | 9.7 | 0.00 | 0.00 | 0.00 | 72 | 1013.9 |
| 20260509125849 | 11 | 138 | 1.6 | 9.7 | 0.00 | 0.00 | 0.00 | 71 | 1013.8 |
| 20260509125345 | 11 | 142 | 3.2 | 4.8 | 0.00 | 0.00 | 0.00 | 70 | 1014.0 |
| 20260509124841 | 11 | 300 | 4.8 | 6.4 | 0.00 | 0.00 | 0.00 | 70 | 1014.0 |
| 20260509124339 | 11 | 313 | 4.8 | 6.4 | 0.00 | 0.00 | 0.00 | 70 | 1013.8 |
| 20260509123837 | 11 | 345 | 4.8 | 6.4 | 0.00 | 0.00 | 0.00 | 71 | 1013.7 |
| 20260509123333 | 10 | 309 | 3.2 | 6.4 | 0.00 | 0.00 | 0.00 | 73 | 1013.6 |
| 20260509122829 | 10 | 311 | 3.2 | 4.8 | 0.00 | 0.00 | 0.00 | 75 | 1013.7 |
| 20260509122326 | 10 | 154 | 1.6 | 1.6 | 0.00 | 0.00 | 0.00 | 76 | 1013.7 |
| 20260509121823 | 10 | 284 | 0.0 | 0.0 | 0.00 | 0.00 | 0.00 | 80 | 1013.6 |
| 20260509121320 | 9 | 334 | 0.0 | 0.0 | 0.00 | 0.00 | 0.00 | 79 | 1013.6 |
| 20260509120819 | 9 | 335 | 0.0 | 0.0 | 0.00 | 0.00 | 0.00 | 79 | 1013.6 |
| 20260509120316 | 8 | 335 | 0.0 | 0.0 | 0.00 | 0.00 | 0.00 | 79 | 1013.6 |
| 20260509115814 | 8 | 335 | 0.0 | 0.0 | 0.00 | 0.00 | 0.00 | 82 | 1013.6 |
| 20260509115311 | 8 | 335 | 0.0 | 0.0 | 0.00 | 0.00 | 0.00 | 82 | 1013.8 |
| 20260509114809 | 7 | 335 | 0.0 | 0.0 | 0.00 | 0.00 | 0.00 | 81 | 1013.8 |
| 20260509114307 | 7 | 335 | 0.0 | 0.0 | 0.00 | 0.00 | 0.00 | 83 | 1013.7 |
| 20260509113806 | 7 | 335 | 0.0 | 0.0 | 0.00 | 0.00 | 0.00 | 86 | 1014.0 |
| 20260509113302 | 7 | 335 | 0.0 | 0.0 | 0.00 | 0.00 | 0.00 | 86 | 1014.0 |
| 20260509112759 | 7 | 335 | 0.0 | 0.0 | 0.00 | 0.00 | 0.00 | 87 | 1013.8 |
| 20260509112256 | 7 | 335 | 0.0 | 0.0 | 0.00 | 0.00 | 0.00 | 85 | 1013.9 |
| 20260509111753 | 7 | 335 | 0.0 | 0.0 | 0.00 | 0.00 | 0.00 | 86 | 1013.9 |
| 20260509111250 | 6 | 335 | 0.0 | 0.0 | 0.00 | 0.00 | 0.00 | 87 | 1013.9 |
| 20260509110748 | 6 | 335 | 0.0 | 0.0 | 0.00 | 0.00 | 0.00 | 86 | 1013.8 |
| 20260509110244 | 6 | 335 | 0.0 | 0.0 | 0.00 | 0.00 | 0.00 | 86 | 1013.8 |
| 20260509105742 | 6 | 335 | 0.0 | 0.0 | 0.00 | 0.00 | 0.00 | 86 | 1014.0 |
| 20260509105240 | 6 | 335 | 0.0 | 0.0 | 0.00 | 0.00 | 0.00 | 85 | 1013.8 |
| 20260509104736 | 6 | 335 | 0.0 | 0.0 | 0.00 | 0.00 | 0.00 | 87 | 1013.9 |
| 20260509104233 | 6 | 335 | 0.0 | 0.0 | 0.00 | 0.00 | 0.00 | 87 | 1013.9 |
| 20260509103731 | 6 | 335 | 0.0 | 0.0 | 0.00 | 0.00 | 0.00 | 85 | 1013.8 |
| 20260509103228 | 6 | 335 | 0.0 | 0.0 | 0.00 | 0.00 | 0.00 | 85 | 1014.0 |
| 20260509102726 | 6 | 335 | 0.0 | 0.0 | 0.00 | 0.00 | 0.00 | 87 | 1013.9 |
| 20260509102222 | 6 | 335 | 0.0 | 0.0 | 0.00 | 0.00 | 0.00 | 86 | 1013.8 |
| 20260509101719 | 6 | 335 | 0.0 | 0.0 | 0.00 | 0.00 | 0.00 | 86 | 1013.7 |
| 20260509101216 | 6 | 335 | 0.0 | 0.0 | 0.00 | 0.00 | 0.00 | 86 | 1013.8 |
| 20260509100713 | 6 | 335 | 0.0 | 0.0 | 0.00 | 0.00 | 0.00 | 86 | 1013.8 |
| 20260509100210 | 6 | 335 | 0.0 | 0.0 | 0.00 | 0.00 | 0.00 | 85 | 1013.8 |
| 20260509095707 | 6 | 335 | 0.0 | 0.0 | 0.00 | 0.00 | 0.00 | 85 | 1013.8 |
| 20260509095205 | 6 | 335 | 0.0 | 0.0 | 0.00 | 0.00 | 0.00 | 85 | 1013.9 |
| 20260509094701 | 6 | 335 | 0.0 | 0.0 | 0.00 | 0.00 | 0.00 | 84 | 1013.9 |
| 20260509094158 | 6 | 335 | 0.0 | 0.0 | 0.00 | 0.00 | 0.00 | 84 | 1013.9 |
| 20260509093656 | 6 | 335 | 0.0 | 0.0 | 0.00 | 0.00 | 0.00 | 84 | 1013.9 |
| 20260509093152 | 6 | 335 | 0.0 | 0.0 | 0.00 | 0.00 | 0.00 | 82 | 1013.7 |
| 20260509092650 | 6 | 335 | 0.0 | 0.0 | 0.00 | 0.00 | 0.00 | 80 | 1013.8 |
| 20260509092149 | 6 | 335 | 0.0 | 0.0 | 0.00 | 0.00 | 0.00 | 79 | 1013.8 |
| 20260509091646 | 7 | 335 | 0.0 | 0.0 | 0.00 | 0.00 | 0.00 | 80 | 1013.9 |
| 20260509091142 | 7 | 335 | 0.0 | 0.0 | 0.00 | 0.00 | 0.00 | 80 | 1014.1 |
| 20260509090640 | 7 | 335 | 0.0 | 0.0 | 0.00 | 0.00 | 0.00 | 77 | 1013.9 |
| 20260509090137 | 7 | 335 | 0.0 | 0.0 | 0.00 | 0.00 | 0.00 | 77 | 1013.9 |
| 20260509085635 | 7 | 335 | 0.0 | 0.0 | 0.00 | 0.00 | 0.00 | 76 | 1014.1 |
| 20260509085130 | 7 | 335 | 0.0 | 0.0 | 0.00 | 0.00 | 0.00 | 78 | 1014.1 |
| 20260509084628 | 7 | 335 | 0.0 | 0.0 | 0.00 | 0.00 | 0.00 | 77 | 1014.1 |
| 20260509084125 | 7 | 335 | 0.0 | 0.0 | 0.00 | 0.00 | 0.00 | 77 | 1014.0 |
| 20260509083622 | 7 | 341 | 0.0 | 0.0 | 0.00 | 0.00 | 0.00 | 78 | 1014.2 |